Simultaneous Nadir Overpasses (SNOs) Predictions

Prediction of SNOs between GOES-17 and FY3D Satellite Orbit:

Table of predicted SNOs for the next 14.0 days since TLE Epoch: 11/9/2024
Index Date Time (GOES-17) GOES-17 Lat,Lon FY3D Lat,Lon Distance(km) Time Diff (sec)
1 11/09/2024 09:54:47 -0.00,-104.71 0.61,-107.28 293.77 80
2 11/10/2024 09:33:27 -0.00,-104.71 -0.47,-102.76 223.36 80
3 11/11/2024 21:55:26 0.00,-104.68 -0.78,-108.03 382.23 80
4 11/12/2024 21:39:24 0.00,-104.69 0.25,-103.49 135.51 80
5 11/14/2024 10:01:17 -0.00,-104.73 0.94,-108.74 458.02 80
6 11/15/2024 09:39:55 -0.00,-104.73 -0.10,-104.21 59.24 80
7 11/17/2024 21:43:13 0.00,-104.69 -0.04,-104.96 29.58 80
8 11/18/2024 21:27:11 0.00,-104.69 0.96,-100.41 488.14 80
9 11/20/2024 09:49:03 0.00,-104.74 0.18,-105.67 104.99 80
10 11/21/2024 09:27:40 0.00,-104.74 -0.84,-101.13 412.67 80
11 11/22/2024 21:49:39 0.00,-104.70 -0.37,-106.40 193.05 80
